FW4341 Weather Reports


time (UTC)temp
F
wind
direction
speed
knots
gust
knots
rain 1hr
in
rain 24hr
in
rain mn
in
humidity
%
barometer
mb
20260505124546 68 160 0.0 0.9 0.00 0.00 0.00 92 1018.1
20260505123021 68 160 0.0 0.9 0.00 0.00 0.00 92 1018.0
20260505121549 68 158 0.0 0.9 0.00 0.00 0.00 92 1018.1
20260505120024 68 155 0.0 0.9 0.00 0.00 0.00 92 1018.0
20260505114555 68 155 0.0 1.7 0.00 0.00 0.00 92 1018.4
20260505113012 68 134 0.0 2.6 0.00 0.00 0.00 92 1018.0
20260505111531 68 100 0.0 0.0 0.00 0.00 0.00 92 1018.0
20260505101601 69 100 0.0 0.0 0.00 0.00 0.00 91 1018.1
20260505100059 69 100 0.0 0.0 0.00 0.00 0.00 90 1018.1
20260505094510 69 100 0.0 0.0 0.00 0.00 0.00 90 1017.7
20260505093002 70 100 0.0 0.0 0.00 0.00 0.00 90 1017.9
20260505091530 70 96 0.0 0.0 0.00 0.00 0.00 90 1017.8
20260505090004 70 96 0.0 0.0 0.00 0.00 0.00 89 1017.4
20260505084534 70 96 0.0 0.0 0.00 0.00 0.00 89 1017.4
20260505083105 70 96 0.0 0.0 0.00 0.00 0.00 87 1017.3
20260505081526 71 97 0.0 1.7 0.00 0.00 0.00 86 1017.2
20260505074526 72 98 0.0 1.7 0.00 0.00 0.00 84 1016.6
20260505073104 73 98 0.9 1.7 0.00 0.00 0.00 83 1016.5
20260505071542 73 97 0.0 2.6 0.00 0.00 0.00 82 1016.6
20260505070006 73 112 0.0 3.5 0.00 0.00 0.00 81 1016.4
20260505064531 74 89 0.9 3.5 0.00 0.00 0.00 81 1016.4
20260505063113 74 110 1.7 4.3 0.00 0.00 0.00 80 1016.3
20260505061532 74 113 0.9 3.5 0.00 0.00 0.00 80 1016.5
20260505060056 75 93 0.9 2.6 0.00 0.00 0.00 78 1016.6
20260505054543 75 133 2.6 6.1 0.00 0.00 0.00 76 1016.4
20260505053055 75 80 0.9 4.3 0.00 0.00 0.00 75 1016.4
20260505053004 75 98 0.9 4.3 0.00 0.00 0.00 76 1016.4
20260505051546 75 175 1.7 5.2 0.00 0.00 0.00 75 1016.2
20260505041508 76 117 2.6 5.2 0.00 0.00 0.00 72 1016.0
20260505040034 76 90 1.7 4.3 0.00 0.00 0.00 73 1016.0
20260505034527 77 120 1.7 6.1 0.00 0.00 0.00 72 1015.7
20260505033016 76 109 2.6 7.8 0.00 0.00 0.00 73 1016.0
20260505031512 77 95 2.6 5.2 0.00 0.00 0.00 72 1016.2
20260505030043 77 119 1.7 7.0 0.00 0.00 0.00 72 1016.1
20260505024509 78 72 2.6 5.2 0.00 0.00 0.00 71 1016.3
20260505023055 77 133 3.5 7.0 0.00 0.00 0.00 72 1016.4
20260505021516 77 176 1.7 6.1 0.00 0.00 0.00 72 1016.6
20260505020039 77 172 1.7 7.0 0.00 0.00 0.00 73 1016.7
20260505014502 78 188 1.7 6.1 0.00 0.00 0.00 73 1016.9
20260505013056 77 65 3.5 7.0 0.00 0.00 0.00 73 1017.0
20260505011525 77 177 2.6 7.0 0.00 0.00 0.00 75 1017.3
20260505010107 77 125 1.7 7.8 0.00 0.00 0.00 75 1017.6
20260505004503 76 178 2.6 6.1 0.00 0.00 0.00 75 1018.0
20260505003039 76 203 1.7 5.2 0.00 0.00 0.00 75 1018.0
20260505001559 76 189 1.7 7.8 0.00 0.00 0.00 76 1018.1
20260505001501 76 174 2.6 7.8 0.00 0.00 0.00 76 1018.2
20260505000033 75 118 3.5 7.0 0.00 0.00 0.00 77 1018.4
20260504234549 75 184 0.9 4.3 0.00 0.00 0.00 79 1018.5
20260504233005 74 163 1.7 6.1 0.00 0.00 0.00 83 1018.6
20260504231531 73 169 1.7 6.1 0.00 0.00 0.00 83 1018.7
20260504230050 73 209 2.6 7.8 0.00 0.00 0.00 85 1018.7
20260504224537 72 221 2.6 7.0 0.00 0.00 0.00 86 1018.7
20260504223002 71 183 4.3 7.0 0.00 0.00 0.00 86 1018.8
20260504221545 71 187 3.5 6.1 0.00 0.00 0.00 87 1018.8
20260504220051 70 201 2.6 6.1 0.00 0.00 0.00 89 1018.6
20260504214505 69 181 2.6 6.1 0.00 0.00 0.00 91 1018.6
20260504213047 68 188 1.7 4.3 0.00 0.00 0.00 93 1018.4
20260504211550 68 176 1.7 5.2 0.00 0.00 0.00 94 1018.4
20260504210019 67 198 0.9 3.5 0.00 0.01 0.00 94 1018.3
20260504204538 66 197 0.9 2.6 0.00 0.01 0.00 94 1018.0
20260504203045 66 179 0.0 3.5 0.00 0.01 0.00 94 1017.8
20260504201526 66 206 0.9 4.3 0.00 0.01 0.00 94 1017.7
20260504200049 66 195 1.7 4.3 0.00 0.03 0.00 94 1017.6
20260504194529 66 190 0.0 2.6 0.00 0.03 0.00 94 1017.4
20260504193041 66 205 0.0 2.6 0.00 0.03 0.00 93 1017.2
20260504191538 67 206 1.7 4.3 0.00 0.03 0.00 93 1017.1
20260504190004 67 198 0.9 3.5 0.00 0.07 0.00 93 1017.0
20260504184521 67 176 0.9 3.5 0.00 0.07 0.00 93 1016.8
20260504183048 67 194 0.9 3.5 0.00 0.07 0.00 93 1016.8
20260504181518 67 174 1.7 4.3 0.00 0.07 0.00 93 1016.9
20260504180046 67 207 1.7 5.2 0.00 0.08 0.00 93 1016.7
20260504174502 67 227 2.6 5.2 0.00 0.08 0.00 93 1016.8
20260504173022 67 185 1.7 5.2 0.00 0.08 0.00 93 1016.7
20260504171554 68 192 0.9 4.3 0.00 0.08 0.00 93 1016.7